User: anonymous   Login
Location: Azul
(36.7830°S, 59.8500°W)
Time: 10:58:46
(UTC-03:00)
Language:

M-CUBED/EXP-1 PRIME - Orbit

View from above orbital plane
View from above orbital plane
View from above satellite
View from above satellite

Ground track
Ground track

The orbit data is extracted from the following two-line orbital elements,

1 37855U 11061F   21295.08266364  .00004016  00000-0  19549-3 0  9993
2 37855 101.7229 284.2876 0164871  53.8863 307.7486 15.08391490545738
Epoch (UTC): 22 October 2021 01:59:02
Eccentricity: 0.0164871
inclination: 101.7229°
perigee height: 427 km
apogee height: 655 km
right ascension of ascending node: 284.2876°
argument of perigee: 53.8863°
revolutions per day: 15.08391490
mean anomaly at epoch: 307.7486°
orbit number at epoch: 54573

The dashed part of the orbit path shows where the satellite is in the earth's shadow,  

DLR